• In Uzbekistan
  • List of Countries
  • For 7 days
  • Water Temperature
  • Weather Map
  • Weather Widgets
  • user-avatar
    Login

    Hourly Weather Taganrog

    Today, 23 September, Monday

    Time Temperature Precipitation Wind Pressure Humidity
    00:00 +16°C° 0 mm 5 mps 760 mmHg 65%
    01:00 +15°C° 0 mm 6 mps 760 mmHg 65%
    02:00 +15°C° 0 mm 7 mps 760 mmHg 65%
    03:00 +15°C° 0 mm 8 mps 760 mmHg 65%
    04:00 +14°C° 0 mm 7 mps 760 mmHg 66%
    05:00 +14°C° 0 mm 7 mps 760 mmHg 67%
    06:00 +12°C° 0 mm 7 mps 760 mmHg 68%
    07:00 +14°C° 0 mm 6 mps 760 mmHg 66%
    08:00 +15°C° 0 mm 6 mps 761 mmHg 64%
    09:00 +16°C° 0 mm 5 mps 761 mmHg 62%
    10:00 +17°C° 0 mm 5 mps 761 mmHg 59%
    11:00 +18°C° 0 mm 4 mps 761 mmHg 57%
    12:00 +19°C° 0 mm 4 mps 761 mmHg 55%
    13:00 +17°C° 0 mm 5 mps 761 mmHg 55%
    14:00 +16°C° 0 mm 5 mps 761 mmHg 56%
    15:00 +15°C° 0 mm 5 mps 762 mmHg 56%
    16:00 +14°C° 0 mm 5 mps 762 mmHg 55%
    17:00 +14°C° 0 mm 5 mps 762 mmHg 54%
    18:00 +14°C° 0 mm 5 mps 762 mmHg 54%
    19:00 +13°C° 0 mm 5 mps 763 mmHg 52%
    20:00 +13°C° 0 mm 4 mps 763 mmHg 51%
    21:00 +13°C° 0 mm 4 mps 764 mmHg 49%
    22:00 +13°C° 0 mm 4 mps 764 mmHg 49%
    23:00 +13°C° 0 mm 4 mps 763 mmHg 49%

    Tomorrow, 24 September, Tuesday

    Time Temperature Precipitation Wind Pressure Humidity
    00:00 +13°C° 0 mm 4 mps 763 mmHg 48%
    01:00 +12°C° 0 mm 4 mps 764 mmHg 49%
    02:00 +12°C° 0 mm 4 mps 764 mmHg 49%
    03:00 +12°C° 0 mm 4 mps 764 mmHg 49%
    04:00 +12°C° 0 mm 4 mps 764 mmHg 49%
    05:00 +11°C° 0 mm 4 mps 764 mmHg 50%
    06:00 +10°C° 0 mm 5 mps 764 mmHg 50%
    07:00 +10°C° 0 mm 5 mps 764 mmHg 49%
    08:00 +12°C° 0 mm 5 mps 764 mmHg 47%
    09:00 +13°C° 0 mm 5 mps 764 mmHg 46%
    10:00 +14°C° 0 mm 5 mps 764 mmHg 43%
    11:00 +15°C° 0 mm 4 mps 763 mmHg 41%
    12:00 +17°C° 0 mm 4 mps 763 mmHg 39%
    13:00 +17°C° 0 mm 4 mps 763 mmHg 37%
    14:00 +18°C° 0 mm 3 mps 763 mmHg 35%
    15:00 +18°C° 0 mm 3 mps 763 mmHg 33%
    16:00 +18°C° 0 mm 3 mps 762 mmHg 34%
    17:00 +17°C° 0 mm 3 mps 762 mmHg 35%
    18:00 +17°C° 0 mm 3 mps 762 mmHg 36%
    19:00 +16°C° 0 mm 3 mps 762 mmHg 37%
    20:00 +14°C° 0 mm 4 mps 763 mmHg 38%
    21:00 +13°C° 0 mm 4 mps 763 mmHg 39%
    22:00 +13°C° 0 mm 4 mps 763 mmHg 39%
    23:00 +12°C° 0 mm 5 mps 763 mmHg 39%

    Day after tomorrow, 25 September, Wednesday

    Time Temperature Precipitation Wind Pressure Humidity
    00:00 +10°C° 0 mm 5 mps 763 mmHg 40%
    01:00 +10°C° 0 mm 5 mps 763 mmHg 41%
    02:00 +9°C° 0 mm 5 mps 763 mmHg 43%
    03:00 +10°C° 0 mm 4 mps 763 mmHg 44%
    04:00 +8°C° 0 mm 4 mps 763 mmHg 49%
    05:00 +8°C° 0 mm 4 mps 763 mmHg 54%
    06:00 +8°C° 0 mm 4 mps 764 mmHg 60%
    07:00 +9°C° 0 mm 5 mps 764 mmHg 57%
    08:00 +10°C° 0 mm 5 mps 764 mmHg 55%
    09:00 +13°C° 0 mm 5 mps 764 mmHg 53%
    10:00 +14°C° 0 mm 5 mps 764 mmHg 45%
    11:00 +15°C° 0 mm 5 mps 764 mmHg 37%
    12:00 +17°C° 0 mm 5 mps 764 mmHg 30%
    13:00 +17°C° 0 mm 5 mps 763 mmHg 28%
    14:00 +19°C° 0 mm 5 mps 763 mmHg 26%
    15:00 +19°C° 0 mm 4 mps 763 mmHg 24%
    16:00 +18°C° 0 mm 4 mps 763 mmHg 25%
    17:00 +18°C° 0 mm 4 mps 763 mmHg 27%
    18:00 +17°C° 0 mm 4 mps 763 mmHg 28%
    19:00 +15°C° 0 mm 5 mps 763 mmHg 29%
    20:00 +14°C° 0 mm 5 mps 763 mmHg 31%
    21:00 +13°C° 0 mm 5 mps 763 mmHg 32%
    22:00 +13°C° 0 mm 5 mps 763 mmHg 34%
    23:00 +12°C° 0 mm 5 mps 763 mmHg 36%

    26 September, Thursday

    Time Temperature Precipitation Wind Pressure Humidity
    00:00 +11°C° 0 mm 6 mps 763 mmHg 38%
    01:00 +10°C° 0 mm 6 mps 763 mmHg 40%
    02:00 +10°C° 0 mm 6 mps 763 mmHg 42%
    03:00 +9°C° 0 mm 6 mps 763 mmHg 44%
    04:00 +9°C° 0 mm 6 mps 763 mmHg 44%
    05:00 +9°C° 0 mm 6 mps 763 mmHg 45%
    06:00 +9°C° 0 mm 6 mps 763 mmHg 46%
    07:00 +10°C° 0 mm 7 mps 763 mmHg 42%
    08:00 +12°C° 0 mm 7 mps 763 mmHg 38%
    09:00 +13°C° 0 mm 8 mps 763 mmHg 34%
    10:00 +15°C° 0 mm 8 mps 763 mmHg 33%
    11:00 +17°C° 0 mm 7 mps 763 mmHg 33%
    12:00 +18°C° 0 mm 7 mps 763 mmHg 32%
    13:00 +18°C° 0 mm 7 mps 762 mmHg 34%
    14:00 +20°C° 0 mm 7 mps 762 mmHg 36%
    15:00 +20°C° 0 mm 6 mps 762 mmHg 38%
    16:00 +20°C° 0 mm 6 mps 762 mmHg 44%
    17:00 +19°C° 0 mm 6 mps 762 mmHg 49%
    18:00 +17°C° 0 mm 6 mps 762 mmHg 55%
    19:00 +17°C° 0 mm 6 mps 762 mmHg 58%
    20:00 +16°C° 0 mm 6 mps 762 mmHg 61%
    21:00 +15°C° 0 mm 6 mps 762 mmHg 65%
    22:00 +15°C° 0 mm 6 mps 762 mmHg 67%
    23:00 +15°C° 0 mm 6 mps 762 mmHg 69%

    27 September, Friday

    Time Temperature Precipitation Wind Pressure Humidity
    00:00 +15°C° 0 mm 6 mps 762 mmHg 71%
    01:00 +14°C° 0 mm 6 mps 761 mmHg 73%
    02:00 +14°C° 0 mm 6 mps 761 mmHg 74%
    03:00 +13°C° 0 mm 6 mps 761 mmHg 76%
    04:00 +13°C° 0.1 mm 6 mps 761 mmHg 76%
    05:00 +13°C° 0.1 mm 6 mps 761 mmHg 75%
    06:00 +13°C° 0.1 mm 6 mps 761 mmHg 75%
    07:00 +13°C° 0.5 mm 6 mps 761 mmHg 76%
    08:00 +13°C° 0.5 mm 6 mps 761 mmHg 77%
    09:00 +14°C° 0.5 mm 6 mps 761 mmHg 77%
    10:00 +14°C° 0.4 mm 6 mps 761 mmHg 77%
    11:00 +15°C° 0.4 mm 6 mps 761 mmHg 77%
    12:00 +15°C° 0.4 mm 6 mps 761 mmHg 77%
    13:00 +15°C° 0.3 mm 6 mps 761 mmHg 78%
    14:00 +15°C° 0.3 mm 6 mps 761 mmHg 80%
    15:00 +14°C° 0.3 mm 6 mps 760 mmHg 82%
    16:00 +14°C° 0.1 mm 6 mps 760 mmHg 83%
    17:00 +14°C° 0.1 mm 6 mps 761 mmHg 84%
    18:00 +14°C° 0.1 mm 6 mps 761 mmHg 85%
    19:00 +14°C° 0 mm 6 mps 761 mmHg 85%
    20:00 +14°C° 0 mm 6 mps 761 mmHg 86%
    21:00 +13°C° 0 mm 6 mps 761 mmHg 86%
    22:00 +13°C° 0 mm 6 mps 761 mmHg 87%
    23:00 +13°C° 0 mm 6 mps 762 mmHg 87%

    28 September, Saturday

    Time Temperature Precipitation Wind Pressure Humidity
    00:00 +13°C° 0 mm 6 mps 762 mmHg 88%
    01:00 +13°C° 0 mm 6 mps 762 mmHg 87%
    02:00 +13°C° 0 mm 6 mps 762 mmHg 87%
    03:00 +13°C° 0 mm 5 mps 762 mmHg 86%
    04:00 +13°C° 0 mm 5 mps 762 mmHg 85%
    05:00 +13°C° 0 mm 5 mps 763 mmHg 85%
    06:00 +13°C° 0 mm 5 mps 763 mmHg 84%
    07:00 +13°C° 0 mm 5 mps 763 mmHg 83%
    08:00 +13°C° 0 mm 5 mps 763 mmHg 82%
    09:00 +13°C° 0 mm 5 mps 764 mmHg 81%
    10:00 +13°C° 0 mm 5 mps 764 mmHg 79%
    11:00 +14°C° 0 mm 5 mps 764 mmHg 77%
    12:00 +14°C° 0 mm 5 mps 765 mmHg 74%
    13:00 +14°C° 0 mm 5 mps 765 mmHg 75%
    14:00 +14°C° 0 mm 5 mps 765 mmHg 75%
    15:00 +14°C° 0 mm 5 mps 765 mmHg 76%
    16:00 +14°C° 0 mm 5 mps 765 mmHg 76%
    17:00 +14°C° 0 mm 5 mps 765 mmHg 77%
    18:00 +14°C° 0 mm 5 mps 765 mmHg 77%
    19:00 +13°C° 0 mm 4 mps 766 mmHg 81%
    20:00 +12°C° 0 mm 4 mps 766 mmHg 84%
    21:00 +12°C° 0 mm 4 mps 766 mmHg 88%
    22:00 +12°C° 0 mm 4 mps 766 mmHg 89%
    23:00 +11°C° 0 mm 4 mps 766 mmHg 90%
    Show more